Regional Weather Roundup
Issued by NWS Cleveland, OH

Home | Current Version | Previous Version | Graphics & Text | Print | Product List | Glossary On
Versions: 1 2 3 4 5 6 7 8 9 10 11 12 13 14 15 16 17 18 19 20 21 22 23 24 25 26 27 28 29 30 31 32 33 34 35 36 37 38 39 40 41 42 43 44 45 46 47 48 49 50
000
ASUS41 KCLE 040400
RWRCLE
OHIO REGIONAL WEATHER ROUNDUP
NATIONAL WEATHER SERVICE WILMINGTON, OH
1100 PM EST SAT DEC 03 2016

NOTE: "FAIR" INDICATES FEW OR NO CLOUDS BELOW 12,000 FEET WITH NO
SIGNIFICANT WEATHER AND/OR OBSTRUCTIONS TO VISIBILITY.

OHZ001>008-015>018-024>027-034-035-043-044-040500-
   NORTHWEST OHIO

CITY           SKY/WX    TMP DP  RH WIND       PRES   REMARKS
DEFIANCE       CLOUDY    36  27  69 CALM      30.29F
FINDLAY        CLOUDY    36  23  59 CALM      30.28F
TOLEDO EXPRESS CLOUDY    35  28  75 SW3       30.30S
TOLEDO EXEC    CLOUDY    36  30  79 S5        30.31S
LIMA           CLOUDY    32  26  78 E5        30.27F WCI  27
$$

OHZ009>014-019>023-028>033-038-089-040500-
   NORTHEAST OHIO

CITY           SKY/WX    TMP DP  RH WIND       PRES   REMARKS
CLE-HOPKINS    CLOUDY    38  25  59 SW7       30.32S
CLE-LAKEFRONT  CLOUDY    38  27  64 SW9       30.30R
CUY CO. ARPT   CLOUDY    37  30  75 SW8       30.29S
LORAIN-ELYRIA  CLOUDY    35  27  72 W7        30.31R WCI  29
ASHTABULA      CLOUDY    35  34  96 CALM      30.28S
AKRON-CANTON   CLOUDY    36  25  64 W5        30.30R
WOOSTER        NOT AVBL
MANSFIELD      CLOUDY    34  27  75 CALM      30.28S
YOUNGSTOWN     CLOUDY    36  27  69 W8        30.27S
$$

OHZ042-051>053-060>062-070>072-077>081-040500-
  SOUTHWEST OHIO

CITY           SKY/WX    TMP DP  RH WIND       PRES   REMARKS
CINC-COVINGTON CLOUDY    37  29  72 CALM      30.28F
CINC-LUNKEN    CLOUDY    38  34  85 CALM      30.31F
HAMILTON       FAIR      31  27  85 CALM      30.30F
DAYTON         NOT AVBL
WRIGHT-PAT AFB NOT AVBL
DAYTON GENERAL MOCLDY    35  26  69 E5        30.27F
WILMINGTON     FAIR      33  27  78 E3        30.28F
$$

OHZ036-037-039>041-045>050-054>059-063>069-073>076-082>088-040500-
  CENTRAL AND SOUTHEAST OHIO

CITY           SKY/WX    TMP DP  RH WIND       PRES   REMARKS
COLUMBUS       CLOUDY    36  29  75 CALM      30.29F
OSU AIRPORT    CLOUDY    36  28  73 SE3       30.29F
BOLTON FIELD   NOT AVBL
RICKENBACK AFB CLOUDY    35  31  83 E3        30.30S
NEWARK         CLOUDY    36  27  69 CALM      30.30S
MARION         CLOUDY    35  25  66 CALM      30.29F
LANCASTER      CLOUDY    36  30  79 CALM      30.30S
ZANESVILLE     CLOUDY    36  29  75 CALM      30.30S
NEW PHILLY     CLOUDY    36  28  73 CALM      30.32S
$$




USA.gov is the U.S. government's official web portal to all federal, state and local government web resources and services.